FW1465 Weather Reports


Display with metric or nautical units.
time (UTC)temp
F
wind
direction
speed
MPH
gust
MPH
rain 1hr
in
rain 24hr
in
rain mn
in
humidity
%
barometer
mb
20260509043017 71 0.0 0.0 0.00 0.07 0.07 59 1008.2
20260509041917 72 0.0 1.0 0.00 0.07 0.07 58 1008.3
20260509040957 72 0.0 0.0 0.00 0.07 0.07 58 1008.1
20260509035937 72 0.0 0.0 0.00 0.07 0.07 58 1008.5
20260509034917 72 0.0 0.0 0.00 0.07 0.07 58 1008.7
20260509033917 72 0.0 0.0 0.00 0.07 0.07 58 1009.3
20260509032957 72 0.0 0.0 0.00 0.07 0.07 58 1008.9
20260509031917 72 0.0 0.0 0.00 0.07 0.07 58 1008.6
20260509030917 72 0.0 0.0 0.00 0.07 0.07 58 1008.6
20260509025917 72 0.0 0.0 0.00 0.07 0.07 58 1008.6
20260509024917 72 0.0 0.0 0.00 0.07 0.07 58 1008.1
20260509023917 72 0.0 0.0 0.00 0.07 0.07 58 1007.7
20260509022917 72 0.0 1.0 0.00 0.07 0.07 58 1007.5
20260509021917 72 0.0 1.0 0.00 0.07 0.07 58 1007.3
20260509020939 72 0.0 0.0 0.00 0.07 0.07 58 1007.2
20260509015937 72 0.0 2.0 0.00 0.07 0.07 57 1007.2
20260509014917 73 0.0 0.0 0.00 0.07 0.07 57 1007.3
20260509013947 73 0.0 0.0 0.00 0.07 0.07 57 1007.2
20260509013057 73 0.0 0.0 0.00 0.07 0.07 56 1007.2
20260509012017 73 0.0 0.0 0.00 0.07 0.07 56 1007.1
20260509011037 73 0.0 0.0 0.00 0.07 0.07 55 1007.1
20260509010157 74 0.0 0.0 0.00 0.07 0.07 55 1007.0
20260509005057 74 0.0 1.0 0.00 0.07 0.07 54 1006.8
20260509004017 75 0.0 5.0 0.00 0.07 0.07 53 1006.6
20260509003017 75 0.0 1.0 0.00 0.07 0.07 52 1006.4
20260509002017 75 0.0 1.0 0.00 0.07 0.07 53 1006.4
20260509001057 75 157 1.0 4.0 0.00 0.07 0.07 52 1006.4
20260509000037 75 0.0 2.0 0.00 0.07 0.07 52 1006.6
20260508235017 76 0.0 1.0 0.00 0.07 0.07 52 1006.8
20260508234017 76 112 1.0 3.0 0.00 0.07 0.07 51 1006.9
20260508233017 76 0.0 2.0 0.00 0.07 0.07 51 1006.9
20260508232037 76 0.0 1.0 0.00 0.07 0.07 50 1007.1
20260508231037 76 0.0 1.0 0.00 0.07 0.07 51 1007.1
20260508230117 76 135 1.0 3.0 0.00 0.07 0.07 50 1007.1
20260508225017 77 0.0 1.0 0.00 0.07 0.07 49 1007.1
20260508223017 78 45 1.0 4.0 0.00 0.07 0.07 48 1007.2
20260508222057 79 270 1.0 4.0 0.00 0.07 0.07 47 1007.0
20260508221037 80 67 2.0 5.0 0.00 0.07 0.07 46 1007.0
20260508220017 80 0.0 1.0 0.00 0.07 0.07 45 1006.9
20260508214017 81 90 1.0 4.0 0.00 0.07 0.07 45 1007.0
20260508213017 81 0.0 3.0 0.00 0.07 0.07 45 1007.0
20260508212158 81 0.0 2.0 0.00 0.07 0.07 45 1007.2
20260508211057 79 0.0 0.0 0.00 0.07 0.07 48 1007.3
20260508210017 77 0.0 0.0 0.00 0.07 0.07 50 1007.8
20260508205137 76 90 1.0 5.0 0.00 0.07 0.07 49 1008.3
20260508204057 76 0.0 1.0 0.00 0.07 0.07 49 1008.7
20260508203057 77 0.0 1.0 0.00 0.07 0.07 48 1009.0
20260508202017 77 0.0 1.0 0.00 0.07 0.07 48 1008.9
20260508201017 77 0.0 1.0 0.00 0.07 0.07 48 1009.0
20260508200017 78 0.0 1.0 0.00 0.07 0.07 46 1009.1
20260508195017 78 0.0 2.0 0.00 0.07 0.07 47 1009.1
20260508194118 78 67 1.0 4.0 0.00 0.07 0.07 46 1009.2
20260508193037 79 0.0 1.0 0.00 0.07 0.07 45 1009.2
20260508192017 80 67 1.0 3.0 0.00 0.07 0.07 44 1009.2
20260508191017 80 0.0 0.0 0.00 0.07 0.07 44 1009.4
20260508190017 80 67 1.0 4.0 0.00 0.07 0.07 44 1009.4
20260508184017 80 0.0 1.0 0.00 0.07 0.07 43 1009.4
20260508183057 79 67 1.0 4.0 0.00 0.07 0.07 44 1009.6
20260508182017 79 0.0 1.0 0.00 0.07 0.07 44 1009.9
20260508181017 79 225 1.0 2.0 0.00 0.07 0.07 43 1010.1
20260508180017 79 0.0 1.0 0.00 0.07 0.07 41 1010.3
20260508175037 79 0.0 1.0 0.00 0.07 0.07 43 1010.3
20260508174037 78 112 1.0 2.0 0.00 0.07 0.07 43 1010.4
20260508173017 77 0.0 1.0 0.00 0.07 0.07 45 1010.5
20260508172037 76 45 1.0 2.0 0.00 0.07 0.07 47 1010.7
20260508171058 75 247 1.0 4.0 0.00 0.07 0.07 47 1011.1
20260508170037 75 0.0 0.0 0.00 0.07 0.07 48 1011.4
20260508165037 73 0.0 1.0 0.00 0.07 0.07 49 1011.7
20260508164017 72 0.0 1.0 0.00 0.07 0.07 49 1011.8
20260508163017 72 0.0 0.0 0.00 0.07 0.07 50 1012.0
20260508162057 71 0.0 1.0 0.00 0.07 0.07 50 1012.2
20260508161017 70 67 1.0 3.0 0.00 0.07 0.07 50 1012.3
20260508160117 70 0.0 0.0 0.00 0.07 0.07 51 1012.3
20260508155037 69 0.0 1.0 0.00 0.07 0.07 50 1012.4
20260508154037 70 0.0 0.0 0.00 0.07 0.07 52 1012.6
20260508153057 69 0.0 1.0 0.00 0.07 0.07 51 1012.7
20260508152017 69 0.0 1.0 0.00 0.07 0.07 52 1012.6
20260508151017 68 0.0 1.0 0.00 0.07 0.07 52 1012.8
20260508150017 68 0.0 0.0 0.00 0.07 0.07 53 1012.8
20260508145017 68 0.0 2.0 0.00 0.07 0.07 53 1012.8
20260508144017 66 0.0 0.0 0.00 0.07 0.07 53 1012.6
20260508143017 66 0.0 0.0 0.00 0.07 0.07 54 1012.9
20260508142017 65 0.0 0.0 0.00 0.07 0.07 53 1013.0
20260508141037 64 0.0 0.0 0.00 0.07 0.07 52 1013.0
20260508140057 63 0.0 0.0 0.00 0.07 0.07 53 1013.0
20260508135158 62 0.0 0.0 0.00 0.07 0.07 54 1012.9
20260508134017 62 0.0 0.0 0.01 0.07 0.07 55 1012.9
20260508133017 61 0.0 0.0 0.04 0.07 0.07 60 1012.9
20260508132017 60 0.0 0.0 0.04 0.07 0.07 60 1013.1
20260508131137 60 0.0 0.0 0.04 0.07 0.07 61 1013.0
20260508130137 60 0.0 0.0 0.04 0.07 0.07 60 1012.9
20260508125017 60 0.0 0.0 0.04 0.07 0.07 57 1013.5
20260508124017 61 0.0 0.0 0.03 0.06 0.06 56 1013.1
20260508123017 61 0.0 0.0 0.00 0.03 0.03 55 1013.6
20260508122017 61 0.0 0.0 0.00 0.03 0.03 55 1013.2
20260508121017 60 0.0 0.0 0.00 0.03 0.03 54 1013.3
20260508120057 60 0.0 0.0 0.00 0.03 0.03 55 1013.1
20260508115037 60 0.0 0.0 0.00 0.03 0.03 59 1013.5
20260508114117 60 0.0 0.0 0.00 0.03 0.03 60 1013.1
20260508112017 60 0.0 0.0 0.00 0.03 0.03 60 1013.1
20260508111017 60 0.0 0.0 0.00 0.03 0.03 60 1012.8
20260508110017 60 0.0 0.0 0.00 0.03 0.03 59 1013.4
20260508105037 60 0.0 0.0 0.00 0.03 0.03 60 1013.7
20260508104057 60 0.0 0.0 0.00 0.03 0.03 59 1013.4
20260508103057 60 0.0 0.0 0.00 0.03 0.03 59 1013.1
20260508102018 60 0.0 0.0 0.00 0.03 0.03 57 1012.5
20260508101017 60 0.0 0.0 0.00 0.03 0.03 64 1012.5
20260508095057 60 0.0 0.0 0.02 0.03 0.03 63 1012.3
20260508094017 60 0.0 0.0 0.02 0.03 0.03 62 1012.5
20260508093017 60 0.0 0.0 0.03 0.03 0.03 61 1012.5
20260508092057 60 0.0 0.0 0.03 0.03 0.03 59 1012.5
20260508091137 60 0.0 0.0 0.03 0.03 0.03 57 1012.7
20260508090057 61 0.0 0.0 0.03 0.03 0.03 57 1012.8
20260508085017 61 0.0 0.0 0.01 0.01 0.01 57 1013.1
20260508084017 61 0.0 1.0 0.01 0.01 0.01 57 1013.3
20260508083017 61 0.0 1.0 0.00 0.00 0.00 57 1012.1
20260508082037 62 0.0 0.0 0.00 0.00 0.00 59 1013.1
20260508081037 62 0.0 0.0 0.00 0.00 0.00 59 1013.5
20260508080037 62 0.0 0.0 0.00 0.00 0.00 57 1013.5
20260508075017 62 0.0 0.0 0.00 0.00 0.00 56 1014.6
20260508074037 62 0.0 0.0 0.00 0.00 0.00 57 1014.2
20260508073017 61 0.0 0.0 0.00 0.00 0.00 59 1013.7
20260508072117 60 0.0 0.0 0.00 0.00 0.00 58 1013.7
20260508071017 60 0.0 0.0 0.00 0.00 0.00 58 1013.7
20260508070037 60 0.0 0.0 0.00 0.00 0.00 58 1013.9
20260508065118 60 0.0 0.0 0.00 0.00 0.00 58 1013.8
20260508064017 61 0.0 0.0 0.00 0.00 0.00 58 1014.3
20260508063017 61 0.0 0.0 0.00 0.00 0.00 58 1014.4
20260508062017 60 0.0 0.0 0.00 0.00 0.00 58 1014.4
20260508061016 60 0.0 0.0 0.00 0.00 0.00 58 1014.5
20260508060016 60 0.0 0.0 0.00 0.00 0.00 59 1014.3
20260508055037 60 0.0 0.0 0.00 0.00 0.00 59 1014.3
20260508054057 60 0.0 0.0 0.00 0.00 0.00 59 1014.3
20260508053017 60 0.0 0.0 0.00 0.00 0.00 59 1014.3
20260508052037 61 0.0 0.0 0.00 0.00 0.00 58 1014.5
20260508051016 61 0.0 0.0 0.00 0.00 0.00 59 1014.3
20260508050037 61 0.0 0.0 0.00 0.00 0.00 58 1014.2
20260508045136 61 0.0 0.0 0.00 0.00 0.00 58 1014.4
20260508044156 61 0.0 0.0 0.00 0.00 0.00 58 1014.3